Location: Zagreb
(45.8000°N, 16.0000°E)
Time: 10:12:19
(UTC+02:00)

X-37B - Pass Details

Date: 26 June 2022
Orbit: 328 x 343 km, 45.0° (Epoch: 12 August)

Event Time Altitude Azimuth Distance (km) Brightness Sun altitude
Exits shadow 03:18:51 31° 240° (WSW) 623 1.1 -13.9°
Maximum altitude 03:19:38 39° 199° (SSW) 521 0.7 -13.8°
Drops below altitude 10° 03:22:21 10° 128° (SE) 1,279 3.2 -13.5°
Sets 03:24:25 0° 120° (ESE) 2,118 4.4 -13.3°
